EW8360 Weather Reports


Display with metric or nautical units.
time (UTC)temp
F
wind
direction
speed
MPH
gust
MPH
rain 1hr
in
rain 24hr
in
rain mn
in
humidity
%
barometer
mb
20260904071533 65 259 0.0 0.0 0.00 0.00 0.00 85 1011.4
20260904071033 65 260 0.0 0.0 0.00 0.00 0.00 85 1011.4
20260904070750 65 269 0.0 1.0 0.00 0.00 0.00 85 1011.4
20260904070035 65 258 0.0 2.0 0.00 0.00 0.00 85 1011.4
20260904065532 65 259 0.0 2.0 0.00 0.00 0.00 85 1011.4
20260904065254 65 256 0.0 3.0 0.00 0.00 0.00 85 1011.4
20260904064533 65 276 1.0 3.0 0.00 0.00 0.00 85 1011.4
20260904064033 65 301 3.0 5.0 0.00 0.00 0.00 85 1011.3
20260904063532 65 280 4.0 5.0 0.00 0.00 0.00 85 1011.4
20260904063032 65 273 2.0 5.0 0.00 0.00 0.00 84 1011.3
20260904062532 65 283 3.0 5.0 0.00 0.00 0.00 84 1011.4
20260904062252 65 271 2.0 5.0 0.00 0.00 0.00 84 1011.3
20260904061532 65 277 2.0 5.0 0.00 0.00 0.00 84 1011.3
20260904061032 65 293 2.0 3.0 0.00 0.00 0.00 84 1011.3
20260904060533 65 290 1.0 5.0 0.00 0.00 0.00 84 1011.4
20260904060033 66 297 3.0 5.0 0.00 0.00 0.00 84 1011.5
20260904055750 66 276 2.0 5.0 0.00 0.00 0.00 84 1011.3
20260904055031 66 256 2.0 5.0 0.00 0.00 0.00 84 1011.4
20260904054531 66 296 3.0 5.0 0.00 0.00 0.00 84 1011.4
20260904054033 66 275 1.0 6.0 0.00 0.00 0.00 84 1011.3
20260904053532 66 289 4.0 6.0 0.00 0.00 0.00 84 1011.2
20260904053031 66 274 1.0 5.0 0.00 0.00 0.00 84 1011.3
20260904052031 66 277 0.0 5.0 0.00 0.00 0.00 84 1011.4
20260904051531 66 263 2.0 5.0 0.00 0.00 0.00 84 1011.4
20260904051031 66 291 2.0 5.0 0.00 0.00 0.00 84 1011.4
20260904050530 66 281 3.0 5.0 0.00 0.00 0.00 83 1011.3
20260904050032 66 316 4.0 5.0 0.00 0.00 0.00 83 1011.2
20260904045532 66 285 3.0 6.0 0.00 0.00 0.00 83 1011.3
20260904045030 66 269 2.0 6.0 0.00 0.00 0.00 83 1011.3
20260904044530 66 320 4.0 6.0 0.00 0.00 0.00 83 1011.3
20260904044031 66 272 3.0 6.0 0.00 0.00 0.00 83 1011.3
20260904043531 67 274 4.0 6.0 0.00 0.00 0.00 82 1011.3
20260904043029 67 328 4.0 6.0 0.00 0.00 0.00 82 1011.4
20260904042529 67 283 2.0 7.0 0.00 0.00 0.00 82 1011.4
20260904042247 67 319 5.0 8.0 0.00 0.00 0.00 82 1011.3
20260904041531 67 354 5.0 8.0 0.00 0.00 0.00 82 1011.3
20260904041029 67 343 6.0 8.0 0.00 0.00 0.00 82 1011.4
20260904040529 67 322 5.0 7.0 0.00 0.00 0.00 82 1011.2
20260904040029 67 316 7.0 7.0 0.00 0.00 0.00 82 1011.2
20260904035529 67 346 3.0 7.0 0.00 0.00 0.00 82 1011.2
20260904035029 67 264 2.0 6.0 0.00 0.00 0.00 82 1011.1
20260904034529 67 313 4.0 7.0 0.00 0.00 0.00 82 1011.1
20260904034029 67 328 3.0 7.0 0.00 0.00 0.00 82 1011.2
20260904033530 67 328 2.0 7.0 0.00 0.00 0.00 82 1011.1
20260904033030 67 296 3.0 7.0 0.00 0.00 0.00 82 1011.1
20260904032529 67 313 4.0 7.0 0.00 0.00 0.00 82 1011.1
20260904032248 67 358 5.0 7.0 0.00 0.00 0.00 81 1011.0
20260904031529 67 273 2.0 8.0 0.00 0.00 0.00 80 1010.9
20260904031250 67 349 5.0 8.0 0.00 0.00 0.00 81 1011.0
20260904030528 67 290 6.0 8.0 0.00 0.00 0.00 81 1010.9
20260904030028 67 276 4.0 8.0 0.00 0.00 0.00 80 1010.9
20260904025529 67 314 5.0 9.0 0.00 0.00 0.00 80 1010.8
20260904024527 67 335 5.0 9.0 0.00 0.00 0.00 80 1010.9
20260904024027 67 69 5.0 9.0 0.00 0.00 0.00 80 1010.8
20260904023529 67 339 6.0 9.0 0.00 0.00 0.00 80 1010.7
20260904023029 67 342 6.0 9.0 0.00 0.00 0.00 80 1010.8
20260904022747 67 317 3.0 8.0 0.00 0.00 0.00 80 1010.7
20260904022027 68 273 2.0 6.0 0.00 0.00 0.00 82 1010.7
20260904021528 68 289 2.0 7.0 0.00 0.00 0.00 82 1010.7
20260904021028 68 273 1.0 7.0 0.00 0.00 0.00 82 1010.7
20260904020526 69 283 2.0 7.0 0.00 0.00 0.00 82 1010.8
20260904020027 69 263 3.0 7.0 0.00 0.00 0.00 81 1010.8
20260904015527 69 271 3.0 7.0 0.00 0.00 0.00 80 1010.9
20260904015027 69 254 3.0 7.0 0.00 0.00 0.00 80 1010.9
20260904014526 70 322 1.0 7.0 0.00 0.00 0.00 79 1010.8
20260904014026 70 303 2.0 7.0 0.00 0.00 0.00 79 1010.9
20260904013527 70 314 3.0 6.0 0.00 0.00 0.00 78 1010.9
20260904013027 70 327 4.0 7.0 0.00 0.00 0.00 78 1011.0
20260904012526 71 277 1.0 7.0 0.00 0.00 0.00 77 1011.0
20260904012026 71 274 1.0 7.0 0.00 0.00 0.00 77 1011.0
20260904011749 71 276 0.0 7.0 0.00 0.00 0.00 77 1011.0
20260904011027 71 351 2.0 7.0 0.00 0.00 0.00 76 1011.0
20260904010525 71 296 3.0 6.0 0.00 0.00 0.00 75 1011.0
20260904005751 71 251 3.0 8.0 0.00 0.00 0.00 74 1011.0
20260904005026 70 254 2.0 8.0 0.00 0.00 0.00 76 1011.1
20260904004525 70 275 0.0 7.0 0.00 0.00 0.00 77 1011.0
20260904004025 70 269 4.0 10.0 0.00 0.00 0.00 77 1011.1
20260904003526 70 302 4.0 13.0 0.00 0.00 0.00 75 1011.0
20260904003248 70 332 3.0 13.0 0.00 0.00 0.00 76 1011.1
20260904002525 70 351 6.0 10.0 0.00 0.00 0.00 78 1010.9
20260904002240 71 301 7.0 10.0 0.00 0.00 0.00 78 1011.0
20260904001524 71 339 4.0 12.0 0.00 0.00 0.00 77 1011.0
20260904001025 71 3 3.0 12.0 0.00 0.00 0.00 77 1011.0
20260904000525 71 290 5.0 10.0 0.00 0.00 0.00 75 1011.0
20260904000024 71 330 2.0 9.0 0.00 0.00 0.00 76 1010.9
20260903235524 71 358 5.0 12.0 0.00 0.00 0.00 76 1011.0
20260903235025 71 294 5.0 12.0 0.00 0.00 0.00 75 1011.1
20260903234524 71 237 5.0 10.0 0.00 0.00 0.00 75 1011.1
20260903233523 72 322 4.0 15.0 0.00 0.00 0.00 75 1011.2
20260903233250 72 351 11.0 15.0 0.00 0.00 0.00 74 1011.1
20260903232525 72 343 11.0 16.0 0.00 0.00 0.00 74 1011.3
20260903232022 72 353 5.0 16.0 0.00 0.00 0.00 72 1011.3
20260903231523 72 281 7.0 12.0 0.00 0.00 0.00 73 1011.3
20260903231024 72 359 6.0 14.0 0.00 0.00 0.00 72 1011.3
20260903230523 72 282 4.0 14.0 0.00 0.00 0.00 71 1011.3
20260903230022 73 340 9.0 15.0 0.00 0.00 0.00 72 1011.3
20260903225522 73 353 9.0 15.0 0.00 0.00 0.00 73 1011.3
20260903225247 73 278 6.0 16.0 0.00 0.00 0.00 70 1011.4
20260903224523 73 5 2.0 16.0 0.00 0.00 0.00 70 1011.4
20260903224022 73 337 9.0 12.0 0.00 0.00 0.00 70 1011.4
20260903223522 73 253 4.0 12.0 0.00 0.00 0.00 69 1011.5
20260903223023 73 332 8.0 13.0 0.00 0.00 0.00 69 1011.6
20260903222523 73 303 4.0 13.0 0.00 0.00 0.00 70 1011.8
20260903222021 73 340 7.0 14.0 0.00 0.00 0.00 71 1011.7
20260903221740 73 4 5.0 14.0 0.00 0.00 0.00 71 1011.7
20260903221022 74 272 4.0 14.0 0.00 0.00 0.00 70 1011.7
20260903220522 74 353 6.0 13.0 0.00 0.00 0.00 73 1011.6
20260903220021 74 321 4.0 15.0 0.00 0.00 0.00 70 1011.7
20260903215521 74 354 9.0 15.0 0.00 0.00 0.00 72 1011.7
20260903215021 74 346 4.0 10.0 0.00 0.00 0.00 69 1011.7
20260903214522 74 328 1.0 16.0 0.00 0.00 0.00 69 1011.8
20260903214021 74 268 7.0 16.0 0.00 0.00 0.00 69 1011.9
20260903213520 74 291 3.0 15.0 0.00 0.00 0.00 66 1011.9
20260903213020 74 329 3.0 15.0 0.00 0.00 0.00 71 1011.9
20260903212522 75 14 6.0 12.0 0.00 0.00 0.00 71 1011.9
20260903212021 75 305 5.0 10.0 0.00 0.00 0.00 71 1011.9
20260903211520 75 257 4.0 8.0 0.00 0.00 0.00 66 1012.0
20260903211019 74 272 5.0 10.0 0.00 0.00 0.00 68 1012.0
20260903210521 74 266 3.0 10.0 0.00 0.00 0.00 68 1012.0
20260903210021 74 63 4.0 10.0 0.00 0.00 0.00 71 1012.1
20260903205520 74 245 8.0 9.0 0.00 0.00 0.00 64 1012.1
20260903205019 74 1 4.0 10.0 0.00 0.00 0.00 68 1012.1
20260903204744 74 355 4.0 10.0 0.00 0.00 0.00 67 1012.0
20260903204020 74 358 5.0 10.0 0.00 0.00 0.00 67 1012.0
20260903203519 74 280 4.0 13.0 0.00 0.00 0.00 67 1011.9
20260903203238 73 293 5.0 13.0 0.00 0.00 0.00 68 1011.9
20260903202747 73 318 7.0 12.0 0.00 0.00 0.00 69 1012.0
20260903202019 73 272 5.0 12.0 0.00 0.00 0.00 71 1012.1
20260903201740 73 335 8.0 10.0 0.00 0.00 0.00 69 1012.1
20260903201018 73 233 3.0 13.0 0.00 0.00 0.00 72 1012.2
20260903200519 74 256 5.0 13.0 0.00 0.00 0.00 73 1012.1
20260903200019 74 295 6.0 14.0 0.00 0.00 0.00 73 1012.1
20260903195742 74 265 6.0 14.0 0.00 0.00 0.00 72 1012.2
20260903195019 74 346 8.0 12.0 0.00 0.00 0.00 73 1012.2
20260903194519 74 266 5.0 12.0 0.00 0.00 0.00 72 1012.2
20260903194019 74 265 3.0 18.0 0.00 0.00 0.00 71 1012.3
20260903193518 74 325 4.0 18.0 0.00 0.00 0.00 72 1012.3
20260903193018 74 257 8.0 14.0 0.00 0.00 0.00 71 1012.2
20260903192519 74 330 6.0 14.0 0.00 0.00 0.00 72 1012.4
20260903192018 74 320 4.0 12.0 0.00 0.00 0.00 71 1012.4
20260903191518 74 296 5.0 10.0 0.00 0.00 0.00 71 1012.4
20260903191017 74 325 6.0 10.0 0.00 0.00 0.00 72 1012.5
20260903190517 74 266 7.0 16.0 0.00 0.00 0.00 71 1012.5
20260903190019 74 272 3.0 16.0 0.00 0.00 0.00 72 1012.6
20260903185744 74 267 6.0 15.0 0.00 0.00 0.00 71 1012.7
20260903185017 74 222 8.0 15.0 0.00 0.00 0.00 73 1012.7
20260903184517 74 350 5.0 14.0 0.00 0.00 0.00 71 1012.7
20260903184018 74 326 11.0 14.0 0.00 0.00 0.00 71 1012.9
20260903183517 74 323 8.0 12.0 0.00 0.00 0.00 71 1013.0
20260903183017 74 13 3.0 10.0 0.00 0.00 0.00 69 1013.0
20260903182516 75 313 3.0 12.0 0.00 0.00 0.00 70 1013.0
20260903182017 75 329 6.0 12.0 0.00 0.00 0.00 70 1013.1
20260903181517 75 338 10.0 12.0 0.00 0.00 0.00 70 1013.1
20260903181015 76 261 2.0 9.0 0.00 0.00 0.00 69 1013.1
20260903180516 76 285 5.0 10.0 0.00 0.00 0.00 68 1013.1
20260903180243 76 355 5.0 10.0 0.00 0.00 0.00 69 1013.0
20260903175517 76 334 3.0 6.0 0.00 0.00 0.00 66 1013.1
20260903175236 75 248 1.0 7.0 0.00 0.00 0.00 63 1013.2
20260903174516 75 228 3.0 7.0 0.00 0.00 0.00 64 1013.2
20260903174017 75 213 5.0 7.0 0.00 0.00 0.00 63 1013.2
20260903173517 74 311 1.0 6.0 0.00 0.00 0.00 64 1013.2
20260903173015 74 277 1.0 6.0 0.00 0.00 0.00 65 1013.2
20260903172737 74 267 2.0 6.0 0.00 0.00 0.00 65 1013.2
20260903172016 74 278 2.0 6.0 0.00 0.00 0.00 64 1013.2
20260903171516 73 253 0.0 5.0 0.00 0.00 0.00 65 1013.2
20260903171015 73 224 2.0 6.0 0.00 0.00 0.00 65 1013.2
20260903170736 73 284 2.0 6.0 0.00 0.00 0.00 67 1013.1
20260903170015 72 337 1.0 6.0 0.00 0.00 0.00 67 1013.2
20260903165738 72 338 0.0 6.0 0.00 0.00 0.00 69 1013.2
20260903165015 72 354 5.0 6.0 0.00 0.00 0.00 68 1013.1
20260903164735 72 4 2.0 5.0 0.00 0.00 0.00 69 1013.1
20260903164014 71 290 1.0 5.0 0.00 0.00 0.00 71 1013.1
20260903163515 71 29 3.0 5.0 0.00 0.00 0.00 69 1013.2
20260903163013 71 300 1.0 5.0 0.00 0.00 0.00 72 1013.2
20260903162514 71 294 1.0 3.0 0.00 0.00 0.00 71 1013.3
20260903162013 71 293 2.0 3.0 0.00 0.00 0.00 73 1013.3
20260903161514 71 289 2.0 3.0 0.00 0.00 0.00 73 1013.4
20260903161230 70 285 1.0 2.0 0.00 0.00 0.00 72 1013.5
20260903160732 70 286 0.0 2.0 0.00 0.00 0.00 72 1013.4
20260903160013 69 290 1.0 2.0 0.00 0.00 0.00 73 1013.4
20260903155736 68 295 1.0 3.0 0.00 0.00 0.00 73 1013.3
20260903155233 68 17 0.0 3.0 0.00 0.00 0.00 75 1013.4
20260903154737 67 300 0.0 3.0 0.00 0.00 0.00 75 1013.4
20260903154013 66 335 1.0 3.0 0.00 0.00 0.00 76 1013.4
20260903153514 66 343 1.0 3.0 0.00 0.00 0.00 77 1013.4
20260903153238 66 0 2.0 3.0 0.00 0.00 0.00 77 1013.4
20260903152513 65 347 1.0 5.0 0.00 0.00 0.00 78 1013.4
20260903152012 65 18 2.0 5.0 0.00 0.00 0.00 79 1013.4
20260903151735 65 32 2.0 5.0 0.00 0.00 0.00 79 1013.3
20260903151014 66 17 2.0 3.0 0.00 0.00 0.00 79 1013.4
20260903150731 66 332 1.0 5.0 0.00 0.00 0.00 80 1013.4
20260903150011 66 282 1.0 5.0 0.00 0.00 0.00 81 1013.4
20260903145513 66 7 2.0 3.0 0.00 0.00 0.00 80 1013.4
20260903145013 66 308 1.0 2.0 0.00 0.00 0.00 77 1013.3
20260903144512 65 266 0.0 2.0 0.00 0.00 0.00 78 1013.4
20260903144011 64 223 1.0 5.0 0.00 0.00 0.00 79 1013.3
20260903143512 64 255 0.0 5.0 0.00 0.00 0.00 80 1013.3
20260903143012 63 155 3.0 3.0 0.00 0.00 0.00 81 1013.2
20260903142511 63 221 2.0 3.0 0.00 0.00 0.00 82 1013.2
20260903142238 62 225 0.0 3.0 0.00 0.00 0.00 83 1013.3
20260903141736 62 318 2.0 3.0 0.00 0.00 0.00 85 1013.2
20260903141011 62 276 0.0 1.0 0.00 0.00 0.00 86 1013.1
20260903140510 62 277 0.0 0.0 0.00 0.00 0.00 86 1013.1
20260903140010 61 259 0.0 2.0 0.00 0.00 0.00 87 1013.1
20260903135511 61 261 0.0 3.0 0.00 0.00 0.00 87 1012.9
20260903135011 61 221 1.0 3.0 0.00 0.00 0.00 87 1012.9
20260903134510 61 178 2.0 3.0 0.00 0.00 0.00 88 1012.8
20260903134010 61 232 0.0 5.0 0.00 0.00 0.00 89 1012.8
20260903133510 61 278 0.0 5.0 0.00 0.00 0.00 89 1012.7
20260903133010 61 351 2.0 5.0 0.00 0.00 0.00 90 1012.7
20260903132510 61 289 0.0 0.0 0.00 0.00 0.00 90 1012.6
20260903132009 61 263 0.0 0.0 0.00 0.00 0.00 90 1012.6
20260903131509 61 258 0.0 2.0 0.00 0.00 0.00 90 1012.6
20260903131011 61 302 0.0 2.0 0.00 0.00 0.00 90 1012.6
20260903130510 61 260 0.0 0.0 0.00 0.00 0.00 90 1012.7
20260903130230 61 270 0.0 0.0 0.00 0.00 0.00 89 1012.6
20260903125729 61 235 0.0 0.0 0.00 0.00 0.00 90 1012.6
20260903125229 61 267 0.0 0.0 0.00 0.00 0.00 90 1012.6
20260903124510 61 254 0.0 0.0 0.00 0.00 0.00 89 1012.7
20260903124229 61 261 0.0 2.0 0.00 0.00 0.00 90 1012.7
20260903123508 61 258 0.0 2.0 0.00 0.00 0.00 90 1012.7
20260903123010 61 336 0.0 0.0 0.00 0.00 0.00 91 1012.7
20260903122509 61 268 0.0 1.0 0.00 0.00 0.00 90 1012.7
20260903122228 61 257 0.0 5.0 0.00 0.00 0.00 91 1012.6
20260903121730 62 277 0.0 5.0 0.00 0.00 0.00 91 1012.6
20260903121009 62 301 0.0 0.0 0.00 0.00 0.00 91 1012.5
20260903120509 62 257 0.0 0.0 0.00 0.00 0.00 91 1012.6
20260903120009 62 253 0.0 2.0 0.00 0.00 0.00 90 1012.6
20260903115508 62 185 0.0 3.0 0.00 0.00 0.00 91 1012.5
20260903115009 62 289 1.0 3.0 0.00 0.00 0.00 91 1012.5
20260903114509 62 284 0.0 3.0 0.00 0.00 0.00 91 1012.6
20260903114008 62 281 0.0 5.0 0.00 0.00 0.00 91 1012.6
20260903113508 62 315 2.0 5.0 0.00 0.00 0.00 91 1012.6
20260903113009 62 271 0.0 1.0 0.00 0.00 0.00 91 1012.6
20260903112509 62 260 0.0 6.0 0.00 0.00 0.00 90 1012.6
20260903112008 62 239 1.0 6.0 0.00 0.00 0.00 91 1012.6
20260903111507 63 334 3.0 3.0 0.00 0.00 0.00 90 1012.6
20260903111008 63 288 0.0 3.0 0.00 0.00 0.00 90 1012.6
20260903110509 63 243 0.0 0.0 0.00 0.00 0.00 90 1012.7
20260903110007 63 251 0.0 3.0 0.00 0.00 0.00 90 1012.7
20260903105507 63 299 0.0 3.0 0.00 0.00 0.00 89 1012.8
20260903105008 63 262 0.0 2.0 0.00 0.00 0.00 89 1012.8
20260903104508 63 279 0.0 3.0 0.00 0.00 0.00 89 1012.7
20260903104006 63 283 0.0 5.0 0.00 0.00 0.00 89 1012.8
20260903103507 63 305 1.0 5.0 0.00 0.00 0.00 89 1012.7
20260903103007 63 284 0.0 3.0 0.00 0.00 0.00 89 1012.7
20260903102507 63 299 2.0 5.0 0.00 0.00 0.00 88 1012.7
20260903102007 63 343 2.0 5.0 0.00 0.00 0.00 88 1012.8
20260903101506 63 14 1.0 2.0 0.00 0.00 0.00 88 1012.9
20260903101230 63 328 0.0 2.0 0.00 0.00 0.00 88 1012.8
20260903100505 63 315 0.0 0.0 0.00 0.00 0.00 88 1012.8
20260903095935 64 309 0.0 3.0 0.00 0.00 0.00 88 1012.9
20260903095657 64 342 0.0 3.0 0.00 0.00 0.00 88 1012.9
20260903094934 64 34 1.0 3.0 0.00 0.00 0.00 88 1012.9
20260903094434 64 3 2.0 5.0 0.00 0.00 0.00 88 1013.0
20260903093934 64 6 2.0 5.0 0.00 0.00 0.00 88 1012.9
20260903093434 64 357 3.0 5.0 0.00 0.00 0.00 88 1013.1
20260903092933 64 351 4.0 5.0 0.00 0.00 0.00 88 1013.1
20260903092435 64 286 1.0 2.0 0.00 0.00 0.00 88 1013.1
20260903091934 63 342 2.0 2.0 0.00 0.00 0.00 88 1013.1
20260903091433 63 317 0.0 0.0 0.00 0.00 0.00 88 1013.3
20260903090933 64 300 0.0 0.0 0.00 0.00 0.00 88 1013.3
20260903090433 64 265 0.0 0.0 0.00 0.00 0.00 89 1013.3
20260903085934 64 276 0.0 3.0 0.00 0.00 0.00 89 1013.3
20260903085659 64 275 0.0 3.0 0.00 0.00 0.00 88 1013.3
20260903084932 64 336 1.0 3.0 0.00 0.00 0.00 88 1013.4
20260903084434 64 250 0.0 0.0 0.00 0.00 0.00 88 1013.4
20260903083934 64 250 0.0 1.0 0.00 0.00 0.00 88 1013.5
20260903083432 65 249 0.0 3.0 0.00 0.00 0.00 87 1013.5
20260903082932 65 277 1.0 3.0 0.00 0.00 0.00 87 1013.5
20260903082433 65 307 2.0 3.0 0.00 0.00 0.00 87 1013.5
20260903081933 65 356 1.0 3.0 0.00 0.00 0.00 86 1013.6
20260903081432 65 276 0.0 0.0 0.00 0.00 0.00 85 1013.7
20260903081150 65 215 0.0 0.0 0.00 0.00 0.00 85 1013.6
20260903080433 65 236 0.0 0.0 0.00 0.00 0.00 86 1013.7
20260903080200 65 223 0.0 0.0 0.00 0.00 0.00 86 1013.7
20260903075431 65 256 0.0 0.0 0.00 0.00 0.00 86 1013.7
20260903074931 65 238 0.0 1.0 0.00 0.00 0.00 87 1013.6
20260903074432 65 262 0.0 5.0 0.00 0.00 0.00 86 1013.7
20260903073933 66 257 0.0 5.0 0.00 0.00 0.00 86 1013.8
20260903073431 66 347 3.0 5.0 0.00 0.00 0.00 86 1013.8
20260903072931 66 301 2.0 3.0 0.00 0.00 0.00 85 1013.8
20260903072431 66 323 0.0 2.0 0.00 0.00 0.00 85 1013.7
20260903071931 66 340 1.0 2.0 0.00 0.00 0.00 85 1013.6